Bretagne — FNBR — position and weather

sailwx.info

Track history (hours):
 
Tides and Currents Weather Stations Pressure Air Temp Water Temp Dewpoint Dewpoint Depression Visibility Wind Speed Wind Dir Waves Ship Positions

Bretagne

Operator: Brittany Ferries

Last reported at 2014-Oct-24 11:31 UTC. Time now 2014-Oct-24 12:06 UTC.
Position N 50°21' W 004°09'.

Length 151 m; beam 27 m.

Type: Passenger vessel. MMSI: 227286000.

Date/timePositionNaut miles runAvg speedWind from/ knotsBaromVisibWave heightAir tempDewpointWater temp
2014-Oct-24 11:31N 50°21' W 004°09'2 0.1
2014-Oct-23 20:23N 50°19' W 004°10'3 3.2
2014-Oct-23 19:32N 50°22' W 004°09'0 0.0
2014-Oct-23 18:32N 50°22' W 004°09'1 1.3
2014-Oct-23 17:30N 50°21' W 004°09'1615.9
2014-Oct-23 16:31N 50°08' W 003°54'1818.7
2014-Oct-23 15:33N 49°53' W 003°38'68 6.0
2014-Oct-23 04:14N 49°05' W 002°25'2713.8
2014-Oct-23 02:17N 49°30' W 002°10'1112.7
2014-Oct-23 01:26N 49°40' W 002°05'1213.8
2014-Oct-23 00:32N 49°51' W 001°57'1312.4
2014-Oct-22 23:32N 50°01' W 001°45'2914.9
2014-Oct-22 21:33N 50°25' W 001°19'1313.5
2014-Oct-22 20:33N 50°37' W 001°07'1110.7
2014-Oct-22 19:33N 50°47' W 001°07'1 1.5
2014-Oct-22 18:33N 50°49' W 001°06'0 0.0
2014-Oct-22 17:33N 50°49' W 001°06'0 0.0
2014-Oct-22 16:33N 50°49' W 001°06'0 0.0
2014-Oct-22 15:33N 50°49' W 001°06'0 0.0
2014-Oct-22 14:33N 50°49' W 001°06'0 0.0
2014-Oct-22 13:33N 50°49' W 001°06'0 0.1
2014-Oct-22 12:34N 50°49' W 001°06'5 4.9
2014-Oct-22 11:33N 50°44' W 001°03'5 4.8
2014-Oct-22 10:33N 50°40' W 001°00'4 4.5
2014-Oct-22 09:33N 50°37' W 001°06'8 8.3
2014-Oct-22 08:34N 50°46' W 001°05'3 2.9
2014-Oct-22 07:32N 50°49' W 001°06'0 0.0
2014-Oct-22 06:34N 50°49' W 001°06'9 9.1
2014-Oct-22 05:33N 50°41' W 000°58'110 3.7
2014-Oct-20 23:32N 49°48' W 003°29'1110.6
2014-Oct-20 22:32N 49°55' W 003°42'1110.9
2014-Oct-20 21:33N 50°04' W 003°52'1913.7
2014-Oct-20 20:09N 50°19' W 004°10'3 5.1
2014-Oct-20 19:33N 50°22' W 004°09'0 0.0
2014-Oct-20 18:33N 50°22' W 004°09'0 0.0
2014-Oct-20 17:33N 50°22' W 004°09'0 0.0
2014-Oct-20 16:30N 50°22' W 004°09'0 0.0
2014-Oct-20 15:33N 50°22' W 004°09'0 0.0
2014-Oct-20 14:33N 50°22' W 004°09'1 1.3
2014-Oct-20 13:33N 50°21' W 004°09'2 0.1
2014-Oct-19 21:33N 50°19' W 004°11'3 2.6
2014-Oct-19 20:31N 50°22' W 004°09'0 0.0
2014-Oct-19 19:31N 50°22' W 004°09'96 6.8
2014-Oct-19 05:33N 48°47' W 003°58'19717.9
2014-Oct-18 18:33N 51°07' W 007°33'1818.3
2014-Oct-18 17:34N 51°17' W 007°58'1817.9
2014-Oct-18 16:34N 51°29' W 008°19'1111.3
2014-Oct-18 15:34N 51°40' W 008°20'1111.0
2014-Oct-18 14:34N 51°51' W 008°18'1 1.2
2014-Oct-18 13:32N 51°50' W 008°19'0 0.0
2014-Oct-18 12:34N 51°50' W 008°19'3 3.4
2014-Oct-18 11:33N 51°47' W 008°16'1717.4
2014-Oct-18 10:34N 51°35' W 007°56'1918.6
2014-Oct-18 09:33N 51°22' W 007°34'143 7.4
2014-Oct-17 14:07N 50°19' W 004°11'3 5.4
2014-Oct-17 13:32N 50°22' W 004°09'0 0.0
2014-Oct-17 12:32N 50°22' W 004°09'2 2.1
2014-Oct-17 11:33N 50°20' W 004°10'1 0.0
2014-Oct-16 20:18N 50°19' W 004°10'3 3.5
2014-Oct-16 19:32N 50°22' W 004°09'0 0.0
2014-Oct-16 18:32N 50°22' W 004°09'1 1.5
2014-Oct-16 17:33N 50°21' W 004°08'1313.3
2014-Oct-16 16:33N 50°09' W 003°57'1717.1
2014-Oct-16 15:33N 49°57' W 003°39'95 5.3
2014-Oct-15 21:32N 50°26' W 001°18'1414.6
2014-Oct-15 20:33N 50°38' W 001°06'1010.4
2014-Oct-15 19:33N 50°49' W 001°06'0 0.4
2014-Oct-15 18:32N 50°49' W 001°06'0 0.0
2014-Oct-15 17:32N 50°49' W 001°06'0 0.0
2014-Oct-15 16:32N 50°49' W 001°06'0 0.0
2014-Oct-15 15:32N 50°49' W 001°06'0 0.0
2014-Oct-15 14:32N 50°49' W 001°06'0 0.0
2014-Oct-15 13:26N 50°49' W 001°06'0 0.0
2014-Oct-15 12:32N 50°49' W 001°06'0 0.0
2014-Oct-15 11:32N 50°49' W 001°06'0 0.0
2014-Oct-15 10:32N 50°49' W 001°06'0 0.0
2014-Oct-15 09:32N 50°49' W 001°06'0 0.0
2014-Oct-15 08:32N 50°49' W 001°06'0 0.0
2014-Oct-15 07:32N 50°49' W 001°06'0 0.1
2014-Oct-15 06:33N 50°49' W 001°06'10 9.9
2014-Oct-15 05:33N 50°39' W 001°05'1413.7
2014-Oct-15 04:32N 50°27' W 001°17'  
Track history (hours):
 
Tides and Currents Weather Stations Pressure Air Temp Water Temp Dewpoint Dewpoint Depression Visibility Wind Speed Wind Dir Waves Ship Positions

Bretagne

Operator: Brittany Ferries

Last reported at 2014-Oct-24 11:31 UTC. Time now 2014-Oct-24 12:06 UTC.
Position N 50°21' W 004°09'.

Length 151 m; beam 27 m.

Type: Passenger vessel. MMSI: 227286000.

Date/timePositionNaut miles runAvg speedWind from/ knotsBaromVisibWave heightAir tempDewpointWater temp
2014-Oct-24 11:31N 50°21' W 004°09'2 0.1
2014-Oct-23 20:23N 50°19' W 004°10'3 3.2
2014-Oct-23 19:32N 50°22' W 004°09'0 0.0
2014-Oct-23 18:32N 50°22' W 004°09'1 1.3
2014-Oct-23 17:30N 50°21' W 004°09'1615.9
2014-Oct-23 16:31N 50°08' W 003°54'1818.7
2014-Oct-23 15:33N 49°53' W 003°38'68 6.0
2014-Oct-23 04:14N 49°05' W 002°25'2713.8
2014-Oct-23 02:17N 49°30' W 002°10'1112.7
2014-Oct-23 01:26N 49°40' W 002°05'1213.8
2014-Oct-23 00:32N 49°51' W 001°57'1312.4
2014-Oct-22 23:32N 50°01' W 001°45'2914.9
2014-Oct-22 21:33N 50°25' W 001°19'1313.5
2014-Oct-22 20:33N 50°37' W 001°07'1110.7
2014-Oct-22 19:33N 50°47' W 001°07'1 1.5
2014-Oct-22 18:33N 50°49' W 001°06'0 0.0
2014-Oct-22 17:33N 50°49' W 001°06'0 0.0
2014-Oct-22 16:33N 50°49' W 001°06'0 0.0
2014-Oct-22 15:33N 50°49' W 001°06'0 0.0
2014-Oct-22 14:33N 50°49' W 001°06'0 0.0
2014-Oct-22 13:33N 50°49' W 001°06'0 0.1
2014-Oct-22 12:34N 50°49' W 001°06'5 4.9
2014-Oct-22 11:33N 50°44' W 001°03'5 4.8
2014-Oct-22 10:33N 50°40' W 001°00'4 4.5
2014-Oct-22 09:33N 50°37' W 001°06'8 8.3
2014-Oct-22 08:34N 50°46' W 001°05'3 2.9
2014-Oct-22 07:32N 50°49' W 001°06'0 0.0
2014-Oct-22 06:34N 50°49' W 001°06'9 9.1
2014-Oct-22 05:33N 50°41' W 000°58'110 3.7
2014-Oct-20 23:32N 49°48' W 003°29'1110.6
2014-Oct-20 22:32N 49°55' W 003°42'1110.9
2014-Oct-20 21:33N 50°04' W 003°52'1913.7
2014-Oct-20 20:09N 50°19' W 004°10'3 5.1
2014-Oct-20 19:33N 50°22' W 004°09'0 0.0
2014-Oct-20 18:33N 50°22' W 004°09'0 0.0
2014-Oct-20 17:33N 50°22' W 004°09'0 0.0
2014-Oct-20 16:30N 50°22' W 004°09'0 0.0
2014-Oct-20 15:33N 50°22' W 004°09'0 0.0
2014-Oct-20 14:33N 50°22' W 004°09'1 1.3
2014-Oct-20 13:33N 50°21' W 004°09'2 0.1
2014-Oct-19 21:33N 50°19' W 004°11'3 2.6
2014-Oct-19 20:31N 50°22' W 004°09'0 0.0
2014-Oct-19 19:31N 50°22' W 004°09'96 6.8
2014-Oct-19 05:33N 48°47' W 003°58'19717.9
2014-Oct-18 18:33N 51°07' W 007°33'1818.3
2014-Oct-18 17:34N 51°17' W 007°58'1817.9
2014-Oct-18 16:34N 51°29' W 008°19'1111.3
2014-Oct-18 15:34N 51°40' W 008°20'1111.0
2014-Oct-18 14:34N 51°51' W 008°18'1 1.2
2014-Oct-18 13:32N 51°50' W 008°19'0 0.0
2014-Oct-18 12:34N 51°50' W 008°19'3 3.4
2014-Oct-18 11:33N 51°47' W 008°16'1717.4
2014-Oct-18 10:34N 51°35' W 007°56'1918.6
2014-Oct-18 09:33N 51°22' W 007°34'143 7.4
2014-Oct-17 14:07N 50°19' W 004°11'3 5.4
2014-Oct-17 13:32N 50°22' W 004°09'0 0.0
2014-Oct-17 12:32N 50°22' W 004°09'2 2.1
2014-Oct-17 11:33N 50°20' W 004°10'1 0.0
2014-Oct-16 20:18N 50°19' W 004°10'3 3.5
2014-Oct-16 19:32N 50°22' W 004°09'0 0.0
2014-Oct-16 18:32N 50°22' W 004°09'1 1.5
2014-Oct-16 17:33N 50°21' W 004°08'1313.3
2014-Oct-16 16:33N 50°09' W 003°57'1717.1
2014-Oct-16 15:33N 49°57' W 003°39'95 5.3
2014-Oct-15 21:32N 50°26' W 001°18'1414.6
2014-Oct-15 20:33N 50°38' W 001°06'1010.4
2014-Oct-15 19:33N 50°49' W 001°06'0 0.4
2014-Oct-15 18:32N 50°49' W 001°06'0 0.0
2014-Oct-15 17:32N 50°49' W 001°06'0 0.0
2014-Oct-15 16:32N 50°49' W 001°06'0 0.0
2014-Oct-15 15:32N 50°49' W 001°06'0 0.0
2014-Oct-15 14:32N 50°49' W 001°06'0 0.0
2014-Oct-15 13:26N 50°49' W 001°06'0 0.0
2014-Oct-15 12:32N 50°49' W 001°06'0 0.0
2014-Oct-15 11:32N 50°49' W 001°06'0 0.0
2014-Oct-15 10:32N 50°49' W 001°06'0 0.0
2014-Oct-15 09:32N 50°49' W 001°06'0 0.0
2014-Oct-15 08:32N 50°49' W 001°06'0 0.0
2014-Oct-15 07:32N 50°49' W 001°06'0 0.1
2014-Oct-15 06:33N 50°49' W 001°06'10 9.9
2014-Oct-15 05:33N 50°39' W 001°05'1413.7
2014-Oct-15 04:32N 50°27' W 001°17'  

Dump ship's entire track history